User: anonymous   Login
Location: Unspecified
(0.0000°N, 0.0000°E)
Time: 02:20:46
(UTC+02:00)
Language:

Meteor PRIRODA - Orbit

View from above orbital plane
View from above orbital plane
View from above satellite
View from above satellite

Ground track
Ground track

The orbit data is extracted from the following two-line orbital elements,

1 12585U 81065A   15148.99235622  .00001891  00000-0  97141-4 0  9993
2 12585 097.3480 133.5975 0017222 136.9794 308.6327 15.17559745848378
Epoch (UTC): 28 May 2015 23:48:59
Eccentricity: 0.0017222
inclination: 97.3480°
perigee height: 501 km
apogee height: 525 km
right ascension of ascending node: 133.5975°
argument of perigee: 136.9794°
revolutions per day: 15.17559745
mean anomaly at epoch: 308.6327°
orbit number at epoch: 84837

The dashed part of the orbit path shows where the satellite is in the earth's shadow,  

DLR